QPF
0.00 0.01 0.02 0.01 0.00 0.00 0.02 0.03 0.02 0.00 0.00 0.00 0.00 0.00 0.00 0.00 0.00 0.00 0.00 0.00 0.00 0.00 0.00 0.00 0.00 0.00 0.00 0.01 0.03 0.01 0.00 0.00 0.00 0.00 0.00 0.00 0.00 0.00 0.01 0.03 0.01 0.00 0.00
0.00 0.00 0.01 0.02 0.00 0.01 0.04 0.03 0.00 0.00 0.00 0.00 0.00 0.00 0.00 0.00 0.00 0.00 0.02 0.00 0.00 0.00 0.00 0.00 0.00 0.00 0.00 0.00 0.00 0.00 0.00 0.00 0.00 0.00 0.00 0.00 0.00 0.00 0.00 0.01 0.01 0.00 0.00
0.00 0.00 0.00 0.01 0.00 0.00 0.00 0.00 0.00 0.00 0.00 0.00 0.00 0.00 0.00 0.00 0.01 0.01 0.00 0.00 0.00 0.00 0.00 0.00 0.00 0.00 0.00 0.00 0.00 0.00 0.00 0.00 0.00 0.00 0.01 0.01 0.00 0.00 0.00 0.00 0.00 0.00 0.00
0.00 0.00 0.00 0.00 0.00 0.00 0.00 0.00 0.00 0.00 0.00 0.00 0.00 0.00 0.00 0.00 0.01 0.00 0.00 0.00 0.00 0.00 0.00 0.00 0.00 0.00 0.00 0.00 0.00 0.00 0.00 0.00 0.00 0.03 0.00 0.01 0.00 0.00 0.00 0.00 0.00 0.00 0.00
0.00 0.00 0.00 0.00 0.00 0.00 0.00 0.00 0.00 0.00 0.00 0.00 0.00 0.00 0.00 0.00 0.00 0.00 0.00 0.00 0.00 0.00 0.00 0.00 0.00 0.00 0.00 0.00 0.00 0.00 0.00 0.00 0.00 0.01 0.00 0.00 0.00 0.03 0.01 0.00 0.00 0.00 0.00
0.00 0.00 0.00 0.00 0.00 0.00 0.00 0.00 0.00 0.00 0.00 0.00 0.00 0.00 0.00 0.00 0.00 0.00 0.00 0.00 0.00 0.00 0.00 0.00 0.01 0.02 0.06 0.07 0.09 0.06 0.01 0.00 0.05 0.01 0.00 0.00 0.00 0.03 0.04 0.00 0.00 0.00 0.00
0.00 0.00 0.00 0.00 0.00 0.00 0.00 0.00 0.00 0.00 0.00 0.00 0.00 0.00 0.00 0.00 0.00 0.00 0.00 0.00 0.00 0.04 0.07 0.08 0.09 0.09 0.13 0.15 0.12 0.10 0.05 0.01 0.00 0.00 0.00 0.00 0.00 0.00 0.04 0.00 0.00 0.00 0.00
0.00 0.00 0.00 0.00 0.00 0.00 0.00 0.00 0.00 0.00 0.00 0.00 0.00 0.00 0.00 0.00 0.00 0.00 0.00 0.03 0.11 0.15 0.16 0.12 0.08 0.05 0.03 0.04 0.08 0.04 0.02 0.01 0.00 0.00 0.00 0.00 0.00 0.00 0.00 0.00 0.00 0.00 0.00
0.00 0.00 0.00 0.00 0.00 0.00 0.00 0.00 0.00 0.00 0.00 0.00 0.00 0.00 0.00 0.00 0.00 0.00 0.01 0.07 0.11 0.24 0.16 0.04 0.01 0.01 0.01 0.02 0.07 0.04 0.00 0.00 0.00 0.00 0.00 0.00 0.00 0.00 0.00 0.00 0.00 0.00 0.00
0.00 0.00 0.00 0.00 0.00 0.00 0.00 0.00 0.00 0.00 0.00 0.00 0.00 0.00 0.01 0.04 0.05 0.09 0.05 0.02 0.02 0.14 0.07 0.01 0.00 0.02 0.01 0.04 0.09 0.04 0.01 0.00 0.00 0.00 0.01 0.00 0.00 0.00 0.00 0.00 0.00 0.00 0.00
0.00 0.00 0.00 0.00 0.00 0.00 0.00 0.00 0.00 0.00 0.00 0.00 0.00 0.01 0.06 0.14 0.19 0.09 0.04 0.00 0.00 0.01 0.00 0.01 0.00 0.00 0.00 0.01 0.02 0.03 0.01 0.01 0.00 0.01 0.03 0.00 0.00 0.00 0.00 0.00 0.00 0.00 0.00
0.00 0.00 0.00 0.00 0.00 0.00 0.00 0.00 0.00 0.00 0.00 0.00 0.00 0.03 0.10 0.24 0.21 0.07 0.02 0.00 0.00 0.00 0.02 0.01 0.01 0.01 0.00 0.02 0.01 0.04 0.04 0.05 0.04 0.04 0.03 0.00 0.00 0.00 0.00 0.00 0.01 0.01 0.00
0.00 0.00 0.00 0.00 0.00 0.00 0.00 0.00 0.00 0.00 0.00 0.01 0.04 0.05 0.10 0.22 0.12 0.04 0.03 0.01 0.01 0.00 0.01 0.03 0.01 0.00 0.00 0.02 0.07 0.10 0.07 0.06 0.10 0.04 0.02 0.00 0.00 0.00 0.01 0.07 0.07 0.12 0.10
0.00 0.00 0.00 0.00 0.00 0.00 0.00 0.00 0.00 0.00 0.00 0.00 0.01 0.06 0.07 0.16 0.12 0.01 0.11 0.08 0.03 0.01 0.01 0.00 0.01 0.00 0.00 0.02 0.05 0.04 0.03 0.05 0.07 0.05 0.02 0.00 0.03 0.07 0.07 0.14 0.11 0.11 0.13
0.00 0.00 0.00 0.00 0.00 0.00 0.00 0.00 0.00 0.00 0.00 0.00 0.00 0.01 0.08 0.04 0.05 0.08 0.07 0.11 0.07 0.05 0.04 0.05 0.01 0.00 0.00 0.00 0.00 0.02 0.04 0.03 0.00 0.00 0.00 0.03 0.06 0.05 0.01 0.06 0.15 0.17 0.16
0.00 0.00 0.00 0.00 0.00 0.00 0.00 0.00 0.00 0.00 0.00 0.00 0.00 0.00 0.02 0.03 0.04 0.07 0.13 0.09 0.03 0.03 0.03 0.04 0.02 0.01 0.00 0.01 0.02 0.02 0.01 0.01 0.02 0.01 0.02 0.05 0.11 0.07 0.05 0.08 0.12 0.11 0.14
0.00 0.00 0.00 0.00 0.00 0.00 0.00 0.00 0.00 0.00 0.00 0.00 0.00 0.00 0.00 0.00 0.01 0.01 0.06 0.06 0.03 0.04 0.02 0.03 0.02 0.07 0.07 0.02 0.00 0.01 0.03 0.02 0.02 0.01 0.00 0.04 0.03 0.01 0.02 0.05 0.05 0.06 0.15
0.00 0.00 0.00 0.00 0.00 0.00 0.00 0.00 0.00 0.00 0.00 0.00 0.00 0.00 0.00 0.00 0.00 0.01 0.00 0.06 0.02 0.01 0.01 0.00 0.01 0.04 0.02 0.00 0.00 0.00 0.00 0.03 0.05 0.06 0.02 0.03 0.01 0.00 0.00 0.01 0.01 0.05 0.11
0.00 0.00 0.00 0.00 0.00 0.00 0.00 0.00 0.00 0.00 0.00 0.00 0.00 0.00 0.00 0.00 0.00 0.00 0.00 0.00 0.01 0.06 0.09 0.06 0.02 0.01 0.01 0.00 0.00 0.00 0.00 0.00 0.02 0.02 0.02 0.01 0.00 0.00 0.00 0.02 0.07 0.22 0.33
0.00 0.00 0.00 0.00 0.00 0.00 0.00 0.00 0.00 0.00 0.00 0.00 0.00 0.00 0.00 0.00 0.00 0.00 0.00 0.00 0.00 0.02 0.01 0.08 0.09 0.05 0.00 0.00 0.00 0.00 0.00 0.00 0.00 0.00 0.00 0.00 0.00 0.01 0.00 0.03 0.09 0.17 0.16
0.00 0.00 0.00 0.00 0.00 0.00 0.00 0.00 0.00 0.00 0.00 0.00 0.00 0.00 0.00 0.00 0.00 0.00 0.00 0.00 0.00 0.00 0.00 0.00 0.00 0.00 0.00 0.00 0.00 0.00 0.00 0.00 0.00 0.00 0.00 0.00 0.00 0.01 0.00 0.01 0.02 0.09 0.13
0.00 0.00 0.00 0.00 0.00 0.00 0.00 0.00 0.00 0.00 0.00 0.00 0.00 0.00 0.00 0.00 0.00 0.00 0.00 0.00 0.00 0.00 0.00 0.00 0.00 0.00 0.00 0.00 0.00 0.00 0.00 0.00 0.00 0.00 0.00 0.00 0.01 0.03 0.02 0.03 0.01 0.06 0.02
0.00 0.00 0.00 0.00 0.00 0.00 0.00 0.00 0.00 0.00 0.00 0.00 0.00 0.00 0.00 0.00 0.00 0.00 0.00 0.00 0.00 0.00 0.00 0.00 0.00 0.00 0.00 0.00 0.01 0.00 0.01 0.00 0.00 0.00 0.00 0.01 0.01 0.00 0.00 0.01 0.01 0.00 0.00
0.00 0.00 0.00 0.00 0.00 0.00 0.00 0.00 0.00 0.00 0.00 0.00 0.00 0.00 0.00 0.00 0.00 0.00 0.00 0.00 0.00 0.00 0.00 0.00 0.00 0.00 0.00 0.00 0.00 0.00 0.01 0.00 0.00 0.01 0.02 0.01 0.00 0.00 0.00 0.01 0.00 0.00 0.00
0.00 0.00 0.00 0.00 0.00 0.00 0.00 0.00 0.00 0.00 0.00 0.00 0.00 0.00 0.00 0.00 0.00 0.00 0.00 0.00 0.00 0.00 0.00 0.00 0.00 0.00 0.00 0.00 0.00 0.00 0.00 0.00 0.00 0.00 0.00 0.00 0.00 0.00 0.00 0.00 0.00 0.00 0.00
0.00 0.00 0.00 0.00 0.00 0.00 0.00 0.00 0.00 0.00 0.00 0.00 0.00 0.00 0.00 0.00 0.00 0.00 0.00 0.00 0.00 0.00 0.00 0.00 0.00 0.00 0.00 0.00 0.00 0.00 0.00 0.00 0.00 0.00 0.00 0.00 0.00 0.00 0.00 0.00 0.00 0.00 0.00
MSLP
1013.94 1013.75 1013.72 1013.75 1013.95 1014.13 1014.34 1014.46 1014.60 1014.73 1014.87 1014.94 1014.91 1014.80 1014.74 1014.87 1014.97 1015.08 1015.17 1015.16 1015.21 1015.36 1015.49 1015.67 1015.67 1015.73 1015.76 1015.51 1015.57 1015.36 1015.29 1015.34 1015.30 1015.21 1015.17 1015.02 1014.96 1014.86 1014.88 1014.97 1015.07 1015.18 1015.26
1013.55 1013.69 1013.76 1013.90 1013.96 1014.18 1014.40 1014.65 1014.85 1014.93 1014.98 1014.88 1014.93 1015.02 1015.13 1015.20 1015.16 1015.19 1015.31 1015.46 1015.64 1015.78 1015.92 1015.94 1015.93 1015.84 1015.73 1015.55 1015.34 1015.32 1015.30 1015.36 1015.39 1015.28 1015.25 1015.32 1015.22 1015.26 1015.20 1015.27 1015.20 1015.17 1015.22
1013.70 1013.71 1013.85 1014.07 1014.27 1014.35 1014.49 1014.65 1014.90 1014.96 1014.87 1014.97 1015.18 1015.40 1015.43 1015.46 1015.44 1015.60 1015.86 1016.00 1016.02 1016.01 1016.04 1016.00 1015.89 1015.80 1015.70 1015.69 1015.71 1015.53 1015.34 1015.30 1015.26 1015.20 1015.16 1015.30 1015.26 1015.04 1014.91 1014.93 1015.20 1015.47 1015.65
1013.50 1013.83 1014.06 1014.30 1014.35 1014.53 1014.66 1014.82 1014.90 1014.86 1015.08 1015.30 1015.46 1015.39 1015.60 1015.75 1015.82 1016.04 1016.01 1016.04 1016.14 1016.16 1016.10 1015.95 1015.82 1015.76 1015.81 1015.88 1015.89 1015.72 1015.46 1015.20 1015.08 1015.18 1015.18 1015.19 1015.12 1015.13 1015.04 1014.94 1015.15 1015.34 1015.46
1013.73 1014.05 1014.21 1014.36 1014.58 1014.72 1014.82 1015.07 1015.01 1015.26 1015.39 1015.55 1015.62 1015.69 1015.93 1015.95 1016.08 1016.21 1016.07 1016.22 1016.30 1016.26 1016.15 1015.91 1015.77 1015.81 1015.85 1015.64 1015.57 1015.57 1015.52 1015.34 1015.20 1015.22 1015.14 1015.07 1015.18 1015.12 1015.09 1015.14 1015.30 1015.15 1015.42
1014.04 1014.20 1014.22 1014.43 1014.71 1014.78 1015.00 1015.09 1015.19 1015.38 1015.57 1015.67 1015.64 1015.76 1015.96 1016.03 1016.14 1016.21 1016.16 1016.27 1016.32 1016.44 1016.29 1016.08 1015.82 1015.53 1015.66 1015.47 1015.48 1015.30 1015.19 1015.17 1015.16 1015.32 1015.36 1015.22 1014.72 1014.90 1015.12 1015.13 1015.13 1015.25 1015.44
1014.14 1014.24 1014.33 1014.54 1014.72 1014.84 1015.14 1015.24 1015.30 1015.60 1015.86 1015.77 1015.82 1015.94 1016.26 1016.48 1016.51 1016.46 1016.45 1016.50 1016.58 1016.66 1016.42 1016.15 1015.77 1015.76 1015.93 1015.62 1015.30 1015.09 1014.92 1014.72 1014.94 1015.04 1015.10 1015.25 1014.92 1014.76 1015.07 1015.20 1015.38 1015.56 1015.62
1013.92 1014.18 1014.40 1014.66 1014.84 1014.95 1015.30 1015.41 1015.50 1015.73 1015.96 1016.09 1016.48 1016.54 1016.59 1016.62 1016.72 1017.04 1016.95 1016.86 1016.66 1016.72 1016.33 1016.04 1015.99 1016.10 1015.89 1015.68 1015.43 1015.06 1014.73 1014.83 1015.10 1015.20 1015.07 1015.00 1015.06 1014.86 1014.91 1015.00 1015.27 1015.54 1015.58
1014.17 1014.42 1014.64 1014.82 1014.92 1015.08 1015.39 1015.51 1015.64 1015.90 1016.15 1016.52 1016.67 1016.82 1016.91 1017.53 1017.25 1017.02 1016.91 1016.97 1016.73 1016.01 1014.88 1015.71 1016.04 1016.07 1015.97 1015.91 1015.18 1015.46 1014.58 1014.54 1014.77 1015.28 1015.40 1014.96 1014.50 1014.46 1014.60 1014.77 1014.94 1015.06 1015.30
1014.48 1014.61 1014.91 1015.03 1015.02 1015.21 1015.44 1015.54 1015.74 1016.00 1016.26 1016.57 1016.66 1016.70 1017.59 1017.53 1017.23 1016.86 1016.93 1016.70 1016.44 1015.94 1015.39 1015.84 1015.57 1015.74 1015.56 1015.90 1015.63 1014.69 1014.15 1014.44 1014.79 1015.24 1015.29 1015.32 1014.77 1014.40 1014.45 1014.68 1014.77 1014.80 1014.87
1014.75 1014.99 1015.02 1015.21 1015.26 1015.28 1015.52 1015.58 1015.81 1016.08 1016.33 1016.50 1016.55 1017.06 1018.04 1017.52 1016.56 1016.76 1016.90 1016.76 1016.73 1015.85 1015.44 1015.15 1014.74 1015.04 1015.09 1015.29 1015.23 1015.06 1014.46 1015.22 1015.42 1015.36 1015.24 1014.99 1014.53 1014.01 1013.49 1013.50 1013.93 1014.40 1014.57
1014.72 1015.07 1015.18 1015.16 1015.30 1015.43 1015.37 1015.53 1015.90 1016.16 1016.30 1016.40 1016.68 1017.97 1017.78 1016.11 1015.86 1016.67 1016.81 1017.15 1017.23 1016.13 1015.50 1014.78 1015.11 1015.00 1014.46 1013.92 1014.62 1015.10 1015.30 1014.84 1014.59 1014.56 1014.36 1014.04 1013.56 1013.58 1013.23 1012.98 1013.32 1013.52 1013.88
1014.15 1014.74 1015.08 1015.05 1015.08 1015.31 1015.27 1015.54 1015.84 1016.20 1016.35 1016.43 1016.78 1017.62 1017.60 1016.86 1017.16 1017.60 1017.22 1016.46 1017.57 1016.83 1016.02 1015.47 1015.64 1015.27 1014.78 1014.27 1014.29 1015.34 1014.94 1014.82 1014.73 1014.28 1013.80 1013.49 1013.18 1013.24 1013.04 1013.00 1013.25 1013.44 1013.54
1014.13 1014.35 1014.72 1014.72 1014.90 1015.14 1015.52 1015.55 1015.63 1016.07 1016.23 1016.32 1016.23 1017.54 1017.77 1017.58 1017.29 1016.77 1017.18 1016.32 1016.28 1016.81 1016.61 1016.12 1015.58 1015.32 1015.17 1014.96 1014.77 1014.70 1014.80 1014.49 1014.31 1014.19 1013.47 1012.94 1012.62 1012.60 1013.09 1013.21 1012.96 1012.94 1013.10
1013.88 1014.22 1014.51 1014.73 1014.85 1015.28 1015.37 1015.48 1015.56 1015.59 1015.90 1015.72 1016.00 1016.62 1017.24 1017.27 1017.35 1017.02 1016.98 1016.29 1016.22 1016.38 1016.52 1016.30 1015.82 1015.61 1015.16 1014.67 1014.48 1014.27 1014.15 1013.89 1013.57 1013.57 1013.46 1013.17 1012.52 1012.66 1013.64 1013.22 1013.78 1012.89 1012.48
1013.58 1014.02 1014.39 1014.62 1014.72 1014.93 1015.24 1015.11 1015.22 1015.08 1015.30 1015.60 1015.69 1015.66 1016.06 1015.94 1016.31 1016.48 1016.20 1016.23 1016.16 1016.24 1016.50 1016.25 1016.03 1015.57 1015.18 1014.81 1014.67 1013.89 1013.47 1013.39 1012.90 1013.14 1012.82 1012.62 1012.16 1012.97 1013.37 1012.91 1012.88 1012.13 1013.03
1013.20 1013.74 1014.34 1014.23 1014.48 1014.87 1014.74 1014.83 1014.92 1015.00 1015.14 1015.16 1015.19 1015.43 1015.35 1015.87 1016.08 1016.26 1016.22 1016.25 1016.10 1016.23 1016.14 1016.16 1015.91 1015.42 1015.75 1014.38 1013.89 1013.50 1013.33 1012.98 1012.96 1012.77 1012.40 1012.42 1012.21 1012.38 1012.58 1012.54 1012.29 1012.28 1013.30
1012.98 1013.60 1014.11 1014.32 1014.54 1014.80 1014.76 1014.64 1014.84 1015.08 1014.88 1015.06 1015.16 1015.27 1015.32 1015.16 1015.45 1015.54 1015.76 1015.89 1015.38 1015.50 1015.82 1015.95 1015.90 1015.36 1014.77 1014.48 1014.20 1013.52 1013.32 1013.30 1013.88 1013.72 1013.40 1013.16 1012.99 1012.78 1012.38 1012.18 1012.50 1012.21 1012.22
1012.69 1013.47 1013.94 1014.29 1014.68 1014.90 1014.89 1014.73 1014.74 1014.68 1014.96 1014.91 1014.86 1015.06 1015.14 1014.89 1014.86 1015.19 1015.33 1015.48 1015.22 1015.76 1016.17 1016.22 1015.81 1015.52 1015.14 1014.58 1014.10 1013.57 1013.24 1013.40 1013.69 1013.64 1013.98 1013.82 1013.26 1012.66 1012.46 1012.17 1012.24 1012.29 1012.42
1012.48 1013.12 1013.69 1014.20 1014.64 1015.00 1015.17 1015.13 1014.98 1014.94 1014.66 1014.90 1014.66 1014.73 1014.93 1014.91 1014.83 1014.86 1014.86 1014.98 1015.21 1015.72 1015.86 1016.02 1016.07 1015.45 1015.06 1014.78 1014.05 1013.74 1013.73 1013.66 1013.73 1013.84 1013.79 1013.60 1013.27 1012.59 1012.64 1012.77 1012.39 1012.73 1012.77
1012.30 1013.04 1013.68 1014.22 1014.61 1015.08 1015.45 1015.63 1015.56 1015.41 1014.98 1014.61 1014.66 1014.38 1014.68 1014.82 1014.62 1014.70 1014.86 1014.96 1015.13 1015.51 1015.58 1015.61 1015.39 1015.18 1014.95 1014.57 1014.48 1014.03 1014.13 1013.92 1013.73 1013.66 1013.59 1013.47 1013.26 1013.38 1013.24 1013.20 1013.47 1013.60 1013.58
1011.85 1012.54 1013.39 1013.95 1014.46 1014.92 1015.14 1015.33 1015.54 1015.42 1015.05 1014.66 1014.63 1014.50 1014.50 1014.47 1014.36 1014.57 1014.66 1014.86 1015.05 1015.22 1015.28 1015.25 1015.24 1015.21 1014.98 1014.54 1014.49 1014.46 1014.41 1014.09 1014.07 1014.23 1013.95 1013.75 1013.95 1013.88 1013.80 1013.98 1014.30 1014.28 1014.24
1011.47 1012.02 1012.73 1013.54 1014.18 1014.58 1014.91 1015.21 1015.50 1015.39 1015.14 1014.99 1014.57 1014.53 1014.42 1014.13 1013.92 1013.95 1014.18 1014.53 1014.81 1014.93 1014.98 1015.07 1015.01 1014.77 1014.65 1014.26 1014.06 1014.42 1014.46 1014.66 1014.69 1014.39 1014.08 1014.26 1014.39 1014.38 1014.52 1014.62 1014.90 1015.25 1015.15
1010.97 1011.58 1012.14 1012.90 1013.70 1014.27 1014.63 1015.14 1015.60 1015.67 1015.62 1015.24 1014.70 1014.23 1014.24 1013.95 1013.74 1013.73 1013.90 1014.08 1014.47 1014.60 1014.68 1014.66 1014.53 1014.34 1014.26 1014.29 1014.19 1014.12 1014.39 1014.71 1014.66 1014.50 1014.62 1014.91 1014.75 1014.64 1014.89 1015.27 1015.71 1015.65 1015.54
1010.40 1011.12 1011.79 1012.44 1013.05 1013.67 1014.29 1014.72 1015.32 1015.56 1015.40 1015.07 1014.81 1014.58 1014.42 1014.08 1013.68 1013.72 1013.80 1013.89 1014.14 1014.24 1014.34 1014.27 1014.12 1014.20 1014.09 1014.22 1014.43 1014.47 1014.64 1014.56 1014.47 1014.77 1015.24 1015.57 1015.30 1015.42 1015.36 1015.85 1015.85 1015.96 1016.16
1009.84 1010.59 1011.39 1012.09 1012.60 1013.06 1013.82 1014.49 1014.94 1015.25 1015.22 1015.20 1014.97 1014.83 1014.59 1014.35 1014.09 1013.73 1013.46 1013.56 1013.73 1013.92 1014.02 1013.98 1013.95 1013.88 1013.98 1014.20 1014.36 1014.53 1014.70 1014.84 1015.03 1015.05 1015.51 1016.16 1016.46 1016.55 1016.24 1016.32 1016.36 1016.35 1016.27
Thickness
5770 5771 5771 5771 5769 5768 5767 5766 5764 5762 5760 5759 5759 5761 5762 5761 5761 5760 5758 5758 5756 5754 5752 5750 5750 5749 5746 5748 5750 5752 5753 5753 5751 5751 5752 5755 5756 5758 5758 5758 5757 5757 5755
5777 5774 5773 5771 5770 5769 5768 5765 5763 5762 5761 5763 5762 5761 5759 5759 5759 5758 5757 5755 5753 5751 5748 5747 5747 5748 5749 5751 5753 5753 5752 5751 5751 5750 5750 5751 5752 5754 5755 5753 5754 5755 5754
5778 5777 5775 5771 5770 5769 5769 5768 5765 5763 5764 5763 5760 5757 5756 5756 5757 5755 5752 5750 5750 5749 5748 5747 5748 5749 5750 5749 5748 5750 5752 5752 5750 5748 5749 5750 5751 5753 5755 5754 5752 5749 5747
5781 5780 5776 5772 5772 5771 5770 5768 5767 5767 5763 5760 5757 5759 5756 5755 5755 5752 5753 5752 5750 5749 5748 5749 5750 5750 5747 5746 5746 5748 5749 5752 5752 5749 5748 5750 5752 5753 5753 5754 5752 5749 5746
5783 5780 5777 5776 5773 5772 5771 5768 5769 5765 5762 5760 5760 5759 5756 5756 5754 5752 5754 5751 5749 5748 5747 5749 5750 5749 5748 5751 5752 5750 5751 5750 5750 5750 5751 5752 5752 5752 5753 5752 5749 5751 5746
5784 5782 5780 5778 5775 5775 5772 5771 5770 5767 5764 5763 5763 5761 5758 5756 5755 5752 5751 5748 5746 5744 5746 5750 5753 5754 5752 5753 5753 5754 5754 5752 5750 5749 5749 5750 5754 5751 5750 5750 5750 5750 5747
5786 5784 5782 5779 5778 5777 5773 5772 5771 5767 5763 5765 5764 5762 5755 5751 5750 5748 5748 5748 5746 5746 5746 5748 5751 5749 5750 5752 5755 5758 5759 5759 5756 5751 5749 5750 5751 5752 5750 5749 5745 5743 5742
5791 5788 5784 5781 5780 5779 5773 5772 5770 5768 5764 5762 5755 5755 5754 5752 5752 5751 5749 5746 5748 5749 5751 5752 5748 5746 5747 5750 5753 5757 5760 5758 5753 5751 5749 5749 5750 5752 5751 5750 5745 5741 5742
5791 5788 5786 5783 5781 5779 5774 5772 5770 5768 5764 5758 5756 5753 5752 5748 5750 5749 5748 5746 5750 5757 5759 5752 5749 5748 5747 5747 5753 5751 5759 5758 5756 5751 5747 5751 5754 5754 5751 5750 5747 5745 5742
5791 5788 5786 5784 5783 5781 5776 5773 5771 5768 5765 5761 5758 5756 5751 5749 5749 5749 5749 5755 5748 5755 5762 5753 5756 5753 5755 5751 5754 5761 5765 5759 5756 5751 5749 5746 5749 5750 5748 5745 5743 5743 5742
5791 5789 5788 5785 5784 5783 5779 5776 5773 5769 5767 5763 5760 5757 5750 5754 5761 5754 5745 5750 5743 5756 5765 5764 5764 5759 5764 5763 5761 5760 5761 5753 5753 5752 5750 5751 5753 5755 5758 5756 5750 5743 5741
5792 5790 5790 5788 5787 5785 5782 5780 5776 5771 5769 5767 5763 5756 5757 5765 5768 5755 5752 5749 5740 5754 5760 5766 5762 5761 5769 5778 5769 5761 5756 5762 5760 5761 5760 5761 5766 5762 5760 5760 5754 5751 5745
5801 5796 5793 5794 5791 5788 5787 5784 5779 5773 5771 5771 5765 5761 5759 5763 5759 5750 5754 5758 5748 5752 5760 5763 5761 5765 5771 5775 5772 5761 5763 5763 5761 5762 5765 5766 5766 5762 5760 5759 5751 5746 5741
5802 5801 5798 5798 5795 5792 5787 5786 5783 5777 5775 5775 5773 5762 5756 5754 5757 5761 5756 5764 5761 5755 5757 5763 5766 5771 5773 5774 5773 5768 5766 5768 5765 5762 5766 5766 5766 5761 5751 5747 5747 5746 5738
5805 5804 5801 5800 5800 5794 5793 5791 5786 5783 5782 5783 5779 5773 5766 5762 5759 5762 5763 5764 5763 5760 5760 5763 5769 5770 5773 5777 5773 5771 5769 5770 5768 5763 5760 5760 5759 5751 5734 5743 5735 5740 5740
5811 5806 5805 5804 5802 5800 5798 5796 5793 5789 5791 5788 5787 5785 5779 5780 5775 5771 5773 5770 5769 5766 5764 5766 5769 5771 5770 5769 5767 5771 5772 5769 5769 5765 5764 5763 5764 5741 5739 5742 5735 5737 5720
5815 5812 5806 5808 5806 5804 5805 5801 5798 5796 5795 5796 5793 5789 5788 5783 5780 5775 5773 5769 5770 5769 5768 5767 5766 5763 5764 5773 5774 5776 5773 5772 5769 5766 5764 5762 5762 5755 5749 5744 5738 5733 5716
5819 5815 5811 5811 5809 5806 5806 5806 5804 5801 5800 5798 5797 5795 5792 5790 5782 5781 5779 5777 5776 5775 5768 5766 5763 5767 5772 5774 5774 5778 5777 5772 5761 5757 5755 5754 5750 5749 5747 5739 5726 5725 5723
5822 5818 5814 5812 5808 5807 5807 5808 5806 5805 5800 5802 5802 5800 5796 5793 5791 5785 5779 5778 5777 5773 5768 5767 5769 5770 5771 5775 5778 5782 5781 5775 5766 5759 5749 5747 5748 5746 5737 5730 5721 5717 5713
5825 5822 5818 5814 5810 5808 5807 5807 5807 5807 5806 5804 5806 5803 5798 5795 5794 5792 5791 5789 5784 5781 5778 5774 5771 5775 5776 5776 5779 5779 5776 5772 5768 5760 5755 5750 5744 5740 5729 5722 5718 5706 5698
5826 5822 5818 5815 5812 5807 5804 5802 5802 5801 5806 5810 5810 5809 5803 5801 5801 5799 5798 5795 5791 5787 5784 5783 5782 5782 5781 5781 5776 5776 5772 5770 5767 5763 5756 5748 5739 5725 5716 5709 5700 5690 5684
5829 5825 5820 5817 5814 5811 5809 5808 5805 5805 5807 5811 5811 5810 5808 5806 5807 5805 5804 5800 5797 5794 5792 5791 5788 5785 5786 5788 5780 5773 5763 5764 5764 5757 5753 5745 5731 5715 5703 5692 5683 5677 5672
5832 5829 5825 5820 5816 5814 5814 5811 5809 5809 5810 5809 5812 5811 5813 5813 5814 5813 5811 5807 5803 5801 5798 5795 5793 5791 5787 5790 5788 5775 5763 5752 5750 5752 5748 5737 5723 5706 5693 5681 5672 5664 5661
5836 5835 5832 5827 5820 5816 5816 5812 5807 5804 5801 5809 5814 5818 5816 5817 5819 5818 5815 5812 5809 5806 5804 5802 5802 5799 5795 5786 5783 5779 5770 5759 5748 5742 5739 5727 5715 5700 5688 5675 5662 5657 5652
5840 5837 5832 5830 5827 5822 5817 5816 5810 5807 5809 5814 5815 5815 5815 5818 5819 5818 5817 5816 5813 5811 5809 5807 5805 5800 5797 5789 5779 5772 5764 5759 5755 5740 5725 5715 5707 5691 5681 5668 5661 5654 5647
5842 5841 5835 5830 5829 5827 5821 5817 5814 5811 5811 5811 5813 5813 5814 5815 5818 5820 5821 5820 5818 5816 5811 5810 5807 5803 5796 5788 5781 5773 5765 5756 5746 5738 5725 5709 5690 5678 5670 5662 5657 5651 5645